Flag for Belgium Weather past 2 weeks in Mechelen, Belgium

Now
63 °F

Passing clouds.


Feels Like: 63 °F
Forecast: 59 / 69 °F
Wind: 2 mph from Southeast

Location: Brussels National Airport

Current Time: Aug 27, 2014 at 10:58:59 PM

Latest Report: Aug 27, 2014 at 9:50 PM


Visibility: N/A

Pressure: 29.98 "Hg

Humidity: 88%

Dew point: 59 °F

Location of MechelenLocation

Historic Weather in Mechelen — Graph

°F

Mechelen temperature yesterday

Maximum temperature yesterday: 63 °F (at 1:20 PM)
Minimum temperature yesterday: 55 °F (at 12:20 AM)
Average temperature yesterday: 58 °F

Past Weeks' High & Low Weather Summary

 TemperatureHumidityPressure
High70 °F (Aug 13, 4:20 PM)100% (Aug 16, 12:20 AM)30.15 "Hg (Aug 16, 12:20 AM)
Low46 °F (Aug 20, 5:50 AM)49% (Aug 20, 1:50 PM)29.59 "Hg (Aug 26, 2:50 AM)
Average58 °F78%29.91 "Hg
* Reported Aug 12 9:20 PM — Aug 27 9:20 PM, Mechelen, Weather by CustomWeather, © 2014

Note: Actual official high and low records may vary slightly from our data, if they occured in-between our weather recording intervals... More about our weather records

Advertising

Mechelen weather history for previous 24 hours

 ConditionsComfort  
Time TempWeatherWind HumidityBarometerVisibility
9:20 PM
Aug 27
64 °FPassing clouds.2 mph83%29.98 "HgN/A
8:50 PM64 °FPassing clouds.1 mph83%29.98 "HgN/A
7:50 PM66 °FPassing clouds.2 mph73%29.98 "HgN/A
7:20 PM66 °FPassing clouds.3 mph73%29.98 "HgN/A
6:50 PM68 °FPassing clouds.6 mph64%29.98 "HgN/A
6:20 PM68 °FPassing clouds.3 mph69%29.98 "HgN/A
5:50 PM68 °FPartly sunny.2 mph64%30.01 "HgN/A
4:50 PM66 °FPartly sunny.3 mph68%30.01 "HgN/A
4:20 PM66 °FPartly sunny.3 mph73%30.01 "HgN/A
3:50 PM66 °FPartly sunny.5 mph68%30.01 "HgN/A
3:20 PM66 °FPartly sunny.2 mph73%30.01 "HgN/A
2:50 PM66 °FPartly sunny.5 mph73%30.01 "HgN/A
2:20 PM64 °FPartly sunny.3 mph78%30.01 "HgN/A
1:50 PM63 °FPartly sunny.3 mph77%30.01 "HgN/A
1:20 PM61 °FPartly sunny.8 mph83%30.01 "HgN/A
12:50 PM61 °FScattered clouds.5 mph83%30.01 "HgN/A
12:20 PM61 °FScattered clouds.5 mph83%30.01 "HgN/A
11:50 AM59 °FScattered clouds.3 mph88%30.01 "Hg4 mi
11:20 AM57 °FFog.5 mph88%30.01 "Hg3 mi
10:50 AM55 °FFog.5 mph88%30.01 "Hg4 mi
10:20 AM55 °FFog.3 mph88%30.01 "Hg4 mi
9:50 AM52 °FFog.5 mph94%29.98 "Hg1 mi
9:20 AM52 °FFog.5 mph88%29.98 "Hg1 mi
8:50 AM50 °FFog.3 mph94%29.98 "Hg1 mi
8:20 AM50 °FFog.2 mph94%29.98 "Hg1 mi
7:50 AM50 °FCool.3 mph94%29.95 "Hg1 mi
7:20 AM50 °FFog.1 mph94%29.95 "Hg1 mi
6:50 AM50 °FLight fog.1 mph94%29.95 "Hg1 mi
6:20 AM50 °FCool.1 mph94%29.92 "Hg1 mi
5:50 AM50 °FCool.1 mph94%29.92 "Hg1 mi
5:20 AM52 °FPassing clouds.1 mph88%29.92 "Hg1 mi
4:50 AM52 °FFog.3 mph88%29.92 "Hg2 mi
4:20 AM52 °FFog.3 mph94%29.92 "Hg2 mi
3:50 AM52 °FFog.5 mph94%29.89 "Hg1 mi
3:20 AM54 °FFog.5 mph94%29.89 "Hg2 mi
2:50 AM54 °FFog.5 mph94%29.89 "Hg1 mi
2:20 AM55 °FFog.6 mph94%29.86 "Hg1 mi
1:50 AM55 °FFog.5 mph94%29.86 "Hg1 mi
1:20 AM55 °FFog.5 mph94%29.86 "Hg1 mi
12:50 AM57 °FFog.3 mph88%29.83 "Hg2 mi
12:20 AM57 °FPartly cloudy.5 mph88%29.83 "Hg2 mi
11:50 PM
Aug 26
57 °FPartly cloudy.5 mph88%29.83 "Hg1 mi
11:20 PM57 °FPartly cloudy.6 mph88%29.83 "Hg1 mi
10:50 PM57 °FPassing clouds.7 mph88%29.80 "Hg2 mi
10:20 PM57 °FPassing clouds.7 mph88%29.80 "Hg2 mi
Weather by CustomWeather, © 2014

See weather overviewHow to use our weather pages